Torna al catalogo

NOAA 16 DEB

AttivoSSO
NORAD 41498·DEBRIS·🇺🇸 United States

Lanciato Sep 21, 2000 da Vandenberg Space Force Base

Loading…

Prossimi Passaggi (prossime 24 ore)

TLE

AggiornatoSource: Space-Track

Epoca: Sep 13, 2026, 21:03 UTC

1 41498U 00055LW  26256.87740147  .00000441  00000-0  20395-3 0  9996
2 41498  99.0044  44.8491 0020792  52.6064 307.7004 14.25972325544450

Traccia NOAA 16 DEB in tempo reale con AllMySat

Download on the App Store